Time,TemperatureF,DewpointF,PressureIn,WindDirection,WindDirectionDegrees,WindSpeedMPH,WindSpeedGustMPH,Humidity,HourlyPrecipIn,Conditions,Clouds,dailyrainin,SolarRadiationWatts/m^2,SoftwareType,DateUTC
2013-05-21 00:06:00,77.5,74.0,29.73,SE,144,4.0,-999.0,90,-99.99,,,0.00,0,weatherlink.com 1.10,2013-05-21 05:06:00,
2013-05-21 00:21:00,77.3,74.0,29.73,SE,136,6.0,-999.0,90,-99.99,,,0.00,0,weatherlink.com 1.10,2013-05-21 05:21:00,
2013-05-21 00:36:00,77.4,75.0,29.72,SSE,154,5.0,-999.0,91,-99.99,,,0.00,0,weatherlink.com 1.10,2013-05-21 05:36:00,
2013-05-21 00:51:00,77.3,75.0,29.71,SSE,168,5.0,-999.0,91,-99.99,,,0.00,0,weatherlink.com 1.10,2013-05-21 05:51:00,
2013-05-21 01:06:00,77.1,75.0,29.70,ENE,68,2.0,-999.0,92,-99.99,,,0.00,0,weatherlink.com 1.10,2013-05-21 06:06:00,
2013-05-21 01:21:00,77.0,75.0,29.70,ENE,63,3.0,-999.0,92,-99.99,,,0.00,0,weatherlink.com 1.10,2013-05-21 06:21:00,
2013-05-21 01:36:00,76.9,75.0,29.70,SSE,157,6.0,-999.0,92,-99.99,,,0.00,0,weatherlink.com 1.10,2013-05-21 06:36:00,
2013-05-21 01:51:00,76.9,75.0,29.70,SSE,157,3.0,-999.0,92,-99.99,,,0.00,0,weatherlink.com 1.10,2013-05-21 06:51:00,
2013-05-21 02:06:00,76.7,74.0,29.70,ESE,103,4.0,-999.0,92,-99.99,,,0.00,0,weatherlink.com 1.10,2013-05-21 07:06:00,
2013-05-21 02:21:00,76.7,75.0,29.69,SE,144,3.0,-999.0,93,-99.99,,,0.00,0,weatherlink.com 1.10,2013-05-21 07:21:00,
2013-05-21 02:36:00,76.8,75.0,29.68,SE,132,2.0,-999.0,93,-99.99,,,0.00,0,weatherlink.com 1.10,2013-05-21 07:36:00,
2013-05-21 02:51:00,76.9,75.0,29.69,SSE,159,5.0,-999.0,94,-99.99,,,0.00,0,weatherlink.com 1.10,2013-05-21 07:51:00,
2013-05-21 03:06:00,76.8,75.0,29.69,SSE,162,3.0,-999.0,94,-99.99,,,0.00,0,weatherlink.com 1.10,2013-05-21 08:06:00,
2013-05-21 03:21:00,76.6,75.0,29.69,South,182,6.0,-999.0,94,-99.99,,,0.00,0,weatherlink.com 1.10,2013-05-21 08:21:00,
2013-05-21 03:36:00,76.3,75.0,29.69,SE,125,3.0,-999.0,94,-99.99,,,0.00,0,weatherlink.com 1.10,2013-05-21 08:36:00,
2013-05-21 03:51:00,76.1,74.0,29.69,SE,142,3.0,-999.0,94,-99.99,,,0.00,0,weatherlink.com 1.10,2013-05-21 08:51:00,
2013-05-21 04:06:00,76.2,74.0,29.69,SE,143,3.0,-999.0,94,-99.99,,,0.00,0,weatherlink.com 1.10,2013-05-21 09:06:00,
2013-05-21 04:21:00,76.3,75.0,29.69,SSE,162,6.0,-999.0,95,-99.99,,,0.00,0,weatherlink.com 1.10,2013-05-21 09:21:00,
2013-05-21 04:36:00,76.4,75.0,29.69,SSE,166,5.0,-999.0,95,-99.99,,,0.00,0,weatherlink.com 1.10,2013-05-21 09:36:00,
2013-05-21 04:51:00,76.5,75.0,29.69,ESE,112,3.0,-999.0,95,-99.99,,,0.00,0,weatherlink.com 1.10,2013-05-21 09:51:00,
2013-05-21 05:06:00,76.6,75.0,29.69,SSE,150,3.0,-999.0,95,-99.99,,,0.00,0,weatherlink.com 1.10,2013-05-21 10:06:00,
2013-05-21 05:21:00,76.8,75.0,29.70,SE,128,2.0,-999.0,95,-99.99,,,0.00,0,weatherlink.com 1.10,2013-05-21 10:21:00,
2013-05-21 05:36:00,76.9,75.0,29.70,South,177,5.0,-999.0,94,-99.99,,,0.00,0,weatherlink.com 1.10,2013-05-21 10:36:00,
2013-05-21 05:51:00,77.0,75.0,29.70,SSE,159,6.0,-999.0,94,-99.99,,,0.00,0,weatherlink.com 1.10,2013-05-21 10:51:00,
2013-05-21 06:06:00,77.0,75.0,29.71,SE,124,7.0,-999.0,94,-99.99,,,0.00,0,weatherlink.com 1.10,2013-05-21 11:06:00,
2013-05-21 06:21:00,77.0,75.0,29.71,SE,126,6.0,-999.0,94,-99.99,,,0.00,0,weatherlink.com 1.10,2013-05-21 11:21:00,
2013-05-21 06:37:00,77.0,75.0,29.72,SE,135,3.0,-999.0,94,-99.99,,,0.00,0,weatherlink.com 1.10,2013-05-21 11:37:00,
2013-05-21 06:52:00,77.0,75.0,29.73,SE,146,5.0,-999.0,94,-99.99,,,0.00,7,weatherlink.com 1.10,2013-05-21 11:52:00,
2013-05-21 07:07:00,77.0,75.0,29.73,SE,132,4.0,-999.0,93,-99.99,,,0.00,9,weatherlink.com 1.10,2013-05-21 12:07:00,
2013-05-21 07:22:00,77.1,75.0,29.73,SSE,162,5.0,-999.0,93,-99.99,,,0.00,18,weatherlink.com 1.10,2013-05-21 12:22:00,
2013-05-21 07:37:00,77.3,75.0,29.74,SE,132,3.0,-999.0,93,-99.99,,,0.00,35,weatherlink.com 1.10,2013-05-21 12:37:00,
2013-05-21 07:52:00,77.5,75.0,29.74,ESE,115,3.0,-999.0,92,-99.99,,,0.00,42,weatherlink.com 1.10,2013-05-21 12:52:00,
2013-05-21 08:07:00,77.7,75.0,29.74,SE,134,2.0,-999.0,91,-99.99,,,0.00,91,weatherlink.com 1.10,2013-05-21 13:07:00,
2013-05-21 08:22:00,78.1,75.0,29.74,SSE,164,6.0,-999.0,90,-99.99,,,0.00,81,weatherlink.com 1.10,2013-05-21 13:22:00,
2013-05-21 08:37:00,78.4,75.0,29.73,SSE,161,9.0,-999.0,90,-99.99,,,0.00,142,weatherlink.com 1.10,2013-05-21 13:37:00,
2013-05-21 08:52:00,78.9,76.0,29.73,SE,134,3.0,-999.0,89,-99.99,,,0.00,128,weatherlink.com 1.10,2013-05-21 13:52:00,
2013-05-21 09:07:00,79.6,76.0,29.73,SE,126,4.0,-999.0,89,-99.99,,,0.00,355,weatherlink.com 1.10,2013-05-21 14:07:00,
2013-05-21 09:22:00,80.3,76.0,29.73,SSE,158,10.0,-999.0,87,-99.99,,,0.00,283,weatherlink.com 1.10,2013-05-21 14:22:00,
2013-05-21 09:37:00,80.7,76.0,29.74,SE,142,6.0,-999.0,86,-99.99,,,0.00,322,weatherlink.com 1.10,2013-05-21 14:37:00,
2013-05-21 09:52:00,81.1,76.0,29.74,East,96,10.0,-999.0,84,-99.99,,,0.00,301,weatherlink.com 1.10,2013-05-21 14:52:00,
2013-05-21 10:07:00,81.7,76.0,29.73,SSE,159,5.0,-999.0,83,-99.99,,,0.00,403,weatherlink.com 1.10,2013-05-21 15:07:00,
2013-05-21 10:22:00,81.8,76.0,29.74,SW,215,3.0,-999.0,83,-99.99,,,0.00,366,weatherlink.com 1.10,2013-05-21 15:22:00,
2013-05-21 10:37:00,82.2,76.0,29.74,SSE,155,9.0,-999.0,80,-99.99,,,0.00,330,weatherlink.com 1.10,2013-05-21 15:37:00,
2013-05-21 10:52:00,82.4,76.0,29.74,SSE,155,7.0,-999.0,80,-99.99,,,0.00,431,weatherlink.com 1.10,2013-05-21 15:52:00,
2013-05-21 11:07:00,83.0,76.0,29.74,NE,49,6.0,-999.0,79,-99.99,,,0.00,480,weatherlink.com 1.10,2013-05-21 16:07:00,
2013-05-21 11:22:00,82.9,75.0,29.74,SSE,150,6.0,-999.0,78,-99.99,,,0.00,320,weatherlink.com 1.10,2013-05-21 16:22:00,
2013-05-21 11:37:00,82.9,76.0,29.74,ENE,78,4.0,-999.0,79,-99.99,,,0.00,366,weatherlink.com 1.10,2013-05-21 16:37:00,
2013-05-21 12:07:00,82.3,76.0,29.75,SSE,159,10.0,-999.0,80,-99.99,,,0.00,288,weatherlink.com 1.10,2013-05-21 17:07:00,
2013-05-21 12:22:00,82.5,76.0,29.74,ESE,103,4.0,-999.0,81,-99.99,,,0.00,403,weatherlink.com 1.10,2013-05-21 17:22:00,
2013-05-21 12:37:00,82.9,76.0,29.74,SSE,158,4.0,-999.0,79,-99.99,,,0.00,288,weatherlink.com 1.10,2013-05-21 17:37:00,
2013-05-21 12:52:00,83.4,76.0,29.73,East,81,7.0,-999.0,79,-99.99,,,0.00,362,weatherlink.com 1.10,2013-05-21 17:52:00,
2013-05-21 13:07:00,83.3,76.0,29.72,SE,139,2.0,-999.0,79,-99.99,,,0.00,517,weatherlink.com 1.10,2013-05-21 18:07:00,
2013-05-21 13:22:00,84.2,76.0,29.71,NW,310,3.0,-999.0,77,-99.99,,,0.00,914,weatherlink.com 1.10,2013-05-21 18:22:00,
2013-05-21 13:38:00,85.0,77.0,29.70,NNE,14,5.0,-999.0,76,-99.99,,,0.00,425,weatherlink.com 1.10,2013-05-21 18:38:00,
2013-05-21 13:53:00,84.1,76.0,29.70,SE,124,5.0,-999.0,77,-99.99,,,0.00,517,weatherlink.com 1.10,2013-05-21 18:53:00,
2013-05-21 14:08:00,84.3,76.0,29.70,SSE,153,6.0,-999.0,76,-99.99,,,0.00,343,weatherlink.com 1.10,2013-05-21 19:08:00,
2013-05-21 14:23:00,84.2,76.0,29.71,SSE,152,5.0,-999.0,77,-99.99,,,0.00,378,weatherlink.com 1.10,2013-05-21 19:23:00,
2013-05-21 14:38:00,84.2,76.0,29.69,SSW,203,7.0,-999.0,77,-99.99,,,0.00,457,weatherlink.com 1.10,2013-05-21 19:38:00,
2013-05-21 14:53:00,85.0,77.0,29.70,SSE,162,5.0,-999.0,77,-99.99,,,0.00,369,weatherlink.com 1.10,2013-05-21 19:53:00,
2013-05-21 15:08:00,85.2,77.0,29.70,SSE,155,11.0,-999.0,75,-99.99,,,0.00,299,weatherlink.com 1.10,2013-05-21 20:08:00,
2013-05-21 15:23:00,85.4,77.0,29.69,SE,146,5.0,-999.0,75,-99.99,,,0.00,371,weatherlink.com 1.10,2013-05-21 20:23:00,
2013-05-21 15:38:00,85.9,77.0,29.69,SSE,152,5.0,-999.0,74,-99.99,,,0.00,339,weatherlink.com 1.10,2013-05-21 20:38:00,
2013-05-21 15:53:00,86.1,77.0,29.68,SSE,159,5.0,-999.0,74,-99.99,,,0.00,793,weatherlink.com 1.10,2013-05-21 20:53:00,
2013-05-21 16:08:00,85.8,76.0,29.67,South,172,2.0,-999.0,73,-99.99,,,0.00,747,weatherlink.com 1.10,2013-05-21 21:08:00,
2013-05-21 16:23:00,86.2,77.0,29.67,East,101,3.0,-999.0,74,-99.99,,,0.00,673,weatherlink.com 1.10,2013-05-21 21:23:00,
2013-05-21 16:38:00,86.2,77.0,29.68,East,96,2.0,-999.0,73,-99.99,,,0.00,279,weatherlink.com 1.10,2013-05-21 21:38:00,
2013-05-21 16:53:00,86.5,77.0,29.66,SSW,204,3.0,-999.0,74,-99.99,,,0.00,577,weatherlink.com 1.10,2013-05-21 21:53:00,
2013-05-21 17:08:00,87.0,77.0,29.65,SSE,156,3.0,-999.0,73,-99.99,,,0.00,512,weatherlink.com 1.10,2013-05-21 22:08:00,
2013-05-21 17:23:00,86.1,77.0,29.66,SSE,167,1.0,-999.0,74,-99.99,,,0.00,469,weatherlink.com 1.10,2013-05-21 22:23:00,
2013-05-21 17:38:00,85.3,77.0,29.65,ESE,117,7.0,-999.0,75,-99.99,,,0.00,311,weatherlink.com 1.10,2013-05-21 22:38:00,
2013-05-21 17:53:00,84.2,76.0,29.65,ESE,113,3.0,-999.0,77,-99.99,,,0.00,269,weatherlink.com 1.10,2013-05-21 22:53:00,
2013-05-21 18:08:00,83.3,77.0,29.65,ESE,117,2.0,-999.0,80,-99.99,,,0.00,255,weatherlink.com 1.10,2013-05-21 23:08:00,
2013-05-21 18:23:00,82.4,76.0,29.64,ESE,122,11.0,-999.0,81,-99.99,,,0.00,204,weatherlink.com 1.10,2013-05-21 23:23:00,
2013-05-21 18:38:00,82.4,76.0,29.64,South,169,10.0,-999.0,82,-99.99,,,0.00,244,weatherlink.com 1.10,2013-05-21 23:38:00,
2013-05-21 18:53:00,82.2,76.0,29.64,SE,138,8.0,-999.0,82,-99.99,,,0.00,190,weatherlink.com 1.10,2013-05-21 23:53:00,
2013-05-21 19:08:00,81.4,76.0,29.64,SE,138,7.0,-999.0,84,-99.99,,,0.00,74,weatherlink.com 1.10,2013-05-22 00:08:00,
2013-05-21 19:23:00,80.7,76.0,29.66,South,171,9.0,-999.0,85,-99.99,,,0.00,69,weatherlink.com 1.10,2013-05-22 00:23:00,
2013-05-21 19:38:00,80.2,76.0,29.66,SE,135,6.0,-999.0,86,-99.99,,,0.00,28,weatherlink.com 1.10,2013-05-22 00:38:00,
2013-05-21 19:53:00,79.8,76.0,29.66,SSE,148,6.0,-999.0,88,-99.99,,,0.00,19,weatherlink.com 1.10,2013-05-22 00:53:00,
2013-05-21 20:08:00,79.4,76.0,29.65,SSE,147,5.0,-999.0,88,-99.99,,,0.00,5,weatherlink.com 1.10,2013-05-22 01:08:00,
2013-05-21 20:23:00,79.0,76.0,29.66,SSE,152,5.0,-999.0,90,-99.99,,,0.00,0,weatherlink.com 1.10,2013-05-22 01:23:00,
2013-05-21 20:38:00,78.6,76.0,29.67,SE,132,2.0,-999.0,91,-99.99,,,0.00,0,weatherlink.com 1.10,2013-05-22 01:38:00,
2013-05-21 20:53:00,78.4,76.0,29.67,SE,126,4.0,-999.0,91,-99.99,,,0.00,0,weatherlink.com 1.10,2013-05-22 01:53:00,
2013-05-21 21:08:00,78.2,76.0,29.67,South,169,7.0,-999.0,92,-99.99,,,0.00,0,weatherlink.com 1.10,2013-05-22 02:08:00,
2013-05-21 21:23:00,78.1,76.0,29.68,SE,130,5.0,-999.0,92,-99.99,,,0.00,0,weatherlink.com 1.10,2013-05-22 02:23:00,
2013-05-21 21:38:00,78.2,76.0,29.69,SE,136,1.0,-999.0,92,-99.99,,,0.00,0,weatherlink.com 1.10,2013-05-22 02:38:00,
2013-05-21 21:53:00,78.2,76.0,29.69,SE,143,3.0,-999.0,93,-99.99,,,0.00,0,weatherlink.com 1.10,2013-05-22 02:53:00,
2013-05-21 22:08:00,78.0,76.0,29.70,ESE,108,2.0,-999.0,93,-99.99,,,0.00,0,weatherlink.com 1.10,2013-05-22 03:08:00,
2013-05-21 22:23:00,77.9,76.0,29.70,SE,125,1.0,-999.0,93,-99.99,,,0.00,0,weatherlink.com 1.10,2013-05-22 03:23:00,
2013-05-21 22:38:00,77.7,76.0,29.70,SE,137,4.0,-999.0,93,-99.99,,,0.00,0,weatherlink.com 1.10,2013-05-22 03:38:00,
2013-05-21 22:53:00,77.7,76.0,29.70,SE,130,1.0,-999.0,94,-99.99,,,0.00,0,weatherlink.com 1.10,2013-05-22 03:53:00,
2013-05-21 23:08:00,77.7,76.0,29.70,SE,132,5.0,-999.0,94,-99.99,,,0.00,0,weatherlink.com 1.10,2013-05-22 04:08:00,
2013-05-21 23:23:00,77.8,76.0,29.71,South,180,3.0,-999.0,94,-99.99,,,0.00,0,weatherlink.com 1.10,2013-05-22 04:23:00,
2013-05-21 23:38:00,77.8,76.0,29.71,SE,124,3.0,-999.0,94,-99.99,,,0.00,0,weatherlink.com 1.10,2013-05-22 04:38:00,
2013-05-21 23:53:00,77.8,76.0,29.72,SSE,154,2.0,-999.0,94,-99.99,,,0.00,0,weatherlink.com 1.10,2013-05-22 04:53:00,